Flag for U.S.A. Weather past 2 weeks in Mansfield, Texas, U.S.A.

Now
88 °F

Scattered clouds.


Feels Like: 93 °F
Forecast: 77 / 89 °F
Wind: 10 mph from South

Location: Burleson-Rendon

Current Time: Jul 7, 2015 at 3:44:16 PM

Latest Report: Jul 7, 2015 at 2:55 PM


Visibility: 5 mi

Pressure: 29.96 "Hg

Humidity: 55%

Dew point: 70 °F

Location of MansfieldLocation

Historic Weather in Mansfield — Graph

°F

Mansfield temperature yesterday

Maximum temperature yesterday: 93 °F (at 3:46 PM)
Minimum temperature yesterday: 78 °F (at 4:55 AM)
Average temperature yesterday: 83 °F

Past Weeks' High & Low Weather Summary

 TemperatureHumidityPressure
High97 °F (Jun 29, 4:48 PM)95% (Jun 23, 6:15 AM)30.20 "Hg (Jun 23, 6:15 AM)
Low65 °F (Jun 28, 4:55 AM)34% (Jun 28, 4:49 PM)29.90 "Hg (Jul 2, 8:15 PM)
Average81 °F71%30.02 "Hg
* Reported Jun 22 1:47 PM — Jul 7 1:48 PM, Mansfield, Weather by CustomWeather, © 2015

Note: Actual official high and low records may vary slightly from our data, if they occured in-between our weather recording intervals... More about our weather records

Advertising

Mansfield weather history for previous 24 hours

 ConditionsComfort  
Time TempWeatherWind HumidityBarometerVisibility
1:48 PM
Tue, Jul 7
88 °FBroken clouds.14 mph55%29.97 "Hg5 mi
12:53 PM88 °FScattered clouds.12 mph59%29.99 "Hg5 mi
11:51 AM84 °FScattered clouds.15 mph62%30.00 "Hg5 mi
10:52 AM84 °FScattered clouds.18 mph62%30.00 "Hg5 mi
9:50 AM84 °FBroken clouds.28 mph66%29.99 "Hg5 mi
8:52 AM81 °FPartly sunny.15 mph74%29.99 "Hg6 mi
7:46 AM79 °FPartly sunny.12 mph79%29.98 "Hg6 mi
6:54 AM79 °FMostly cloudy.10 mph79%29.98 "Hg5 mi
6:35 AM78 °FPartly cloudy.10 mph84%29.98 "Hg5 mi
6:15 AM78 °FPassing clouds.12 mph83%29.97 "Hg7 mi
5:55 AM78 °FPassing clouds.10 mph83%29.97 "Hg5 mi
5:35 AM78 °FPassing clouds.10 mph82%29.97 "Hg5 mi
5:15 AM78 °FPassing clouds.9 mph82%29.96 "Hg7 mi
4:55 AM78 °FPassing clouds.9 mph81%29.96 "Hg7 mi
4:15 AM79 °FPartly cloudy.8 mph79%29.95 "Hg7 mi
3:55 AM79 °FPartly cloudy.12 mph78%29.95 "Hg7 mi
3:15 AM80 °FPassing clouds.17 mph77%29.95 "Hg5 mi
2:55 AM80 °FOvercast.15 mph76%29.96 "Hg7 mi
2:35 AM80 °FPassing clouds.12 mph75%29.96 "Hg5 mi
2:15 AM80 °FPassing clouds.16 mph75%29.96 "Hg7 mi
1:55 AM80 °FOvercast.10 mph75%29.96 "Hg5 mi
1:35 AM80 °FPassing clouds.13 mph75%29.97 "Hg7 mi
1:15 AM80 °FClear.15 mph74%29.97 "Hg5 mi
12:55 AM80 °FClear.13 mph73%29.97 "Hg5 mi
12:35 AM81 °FPassing clouds.13 mph71%29.97 "Hg7 mi
12:15 AM82 °FOvercast.10 mph70%29.99 "Hg5 mi
11:55 PM
Mon, Jul 6
82 °FPassing clouds.9 mph68%29.99 "Hg5 mi
11:35 PM82 °FPassing clouds.13 mph69%29.98 "Hg7 mi
11:15 PM82 °FClear.10 mph68%29.98 "Hg7 mi
10:55 PM82 °FClear.9 mph66%29.98 "Hg7 mi
10:15 PM83 °FPassing clouds.8 mph65%29.98 "Hg5 mi
9:55 PM83 °FClear.7 mph64%29.96 "Hg7 mi
9:35 PM84 °FSunny.8 mph63%29.96 "Hg7 mi
9:15 PM84 °FSunny.9 mph63%29.94 "Hg7 mi
8:55 PM85 °FSunny.10 mph62%29.92 "Hg7 mi
8:35 PM85 °FSunny.10 mph59%29.92 "Hg5 mi
8:15 PM86 °FSunny.13 mph54%29.90 "Hg5 mi
6:48 PM90 °FScattered clouds.17 mph46%29.90 "Hg5 mi
5:46 PM91 °FScattered clouds.17 mph44%29.93 "Hg5 mi
4:51 PM93 °FScattered clouds.16 mph39%29.95 "Hg5 mi
3:46 PM93 °FScattered clouds.16 mph39%29.97 "Hg5 mi
Weather by CustomWeather, © 2015

See weather overviewHow to use our weather pages